Flag for Canada Weather past 2 weeks in Stonewall, Manitoba, Canada

Now
66 °F

Broken clouds.


Feels Like: 66 °F
Forecast: 43 / 54 °F
Wind: 8 mph from South

Location: Winnipeg Int. Airportman.

Current Time: Apr 26, 2015 at 7:54:10 PM

Latest Report: Apr 26, 2015 at 7:00 PM


Visibility: 15 mi

Pressure: 30.11 "Hg

Humidity: 26%

Dew point: 30 °F

Location of StonewallLocation

Historic Weather in Stonewall — Graph

°F

Stonewall temperature yesterday

Maximum temperature yesterday: 64 °F (at 6:00 PM)
Minimum temperature yesterday: 32 °F (at 3:00 AM)
Average temperature yesterday: 48 °F

Past Weeks' High & Low Weather Summary

 TemperatureHumidityPressure
High77 °F (Apr 15, 5:00 PM)93% (Apr 19, 5:00 AM)30.24 "Hg (Apr 19, 5:00 AM)
Low12 °F (Apr 23, 6:00 AM)15% (Apr 14, 2:00 PM)29.41 "Hg (Apr 12, 4:00 AM)
Average46 °F49%29.92 "Hg
* Reported Apr 11 6:00 PM — Apr 26 6:00 PM, Stonewall, Weather by CustomWeather, © 2015

Note: Actual official high and low records may vary slightly from our data, if they occured in-between our weather recording intervals... More about our weather records

Advertising

Stonewall weather history for previous 24 hours

 ConditionsComfort  
Time TempWeatherWind HumidityBarometerVisibility
6:00 PM
Sun, Apr 26
68 °FScattered clouds.6 mph24%30.11 "Hg15 mi
5:00 PM68 °FScattered clouds.9 mph23%30.11 "Hg15 mi
4:00 PM68 °FPartly sunny.12 mph24%30.11 "Hg15 mi
3:00 PM68 °FBroken clouds.16 mph24%30.13 "Hg15 mi
2:00 PM66 °FPartly sunny.13 mph28%30.13 "Hg15 mi
1:00 PM64 °FPartly sunny.14 mph32%30.14 "Hg15 mi
12:00 PM63 °FPartly sunny.13 mph34%30.14 "Hg15 mi
11:00 AM59 °FPartly sunny.13 mph42%30.15 "Hg15 mi
10:00 AM54 °FPartly sunny.10 mph44%30.14 "Hg15 mi
9:00 AM50 °FPartly sunny.10 mph47%30.14 "Hg15 mi
8:00 AM46 °FPartly sunny.13 mph50%30.11 "Hg15 mi
7:00 AM43 °FPassing clouds.12 mph57%30.10 "Hg15 mi
6:00 AM39 °FPassing clouds.7 mph61%30.09 "Hg15 mi
5:00 AM41 °FPassing clouds.8 mph61%30.08 "Hg15 mi
4:00 AM41 °FClear.9 mph61%30.07 "Hg15 mi
3:00 AM45 °FClear.13 mph53%30.07 "Hg15 mi
2:00 AM46 °FClear.13 mph50%30.05 "Hg15 mi
1:00 AM48 °FClear.12 mph50%30.05 "Hg15 mi
12:00 AM50 °FClear.13 mph43%30.03 "Hg15 mi
11:00 PM
Sat, Apr 25
52 °FCool.13 mph44%30.03 "Hg15 mi
10:00 PM54 °FPartly cloudy.10 mph44%30.01 "Hg15 mi
9:00 PM52 °FBroken clouds.9 mph44%30.00 "Hg15 mi
8:00 PM59 °FPartly sunny.13 mph34%29.98 "Hg15 mi
7:00 PM63 °FScattered clouds.13 mph32%29.96 "Hg15 mi
Weather by CustomWeather, © 2015

See weather overviewHow to use our weather pages